San Diego Brown, CA

2:27 AM PST on February 25, 2018 (GMT -0800)
Brown Municipal

Weather History for KSDM - March, 2013

Change the Weather History Date:

Friday, March 1, 2013

  Actual Average Record
Temperature  
Mean Temperature 64 °F 56 °F  
Max Temperature 84 °F 67 °F 86 °F (2013)
Min Temperature 45 °F 46 °F 37 °F (1997)
Degree Days  
Heating Degree Days 0 9  
Month to date heating degree days 9  
Since 1 July heating degree days 1178  
Cooling Degree Days 0 0  
Month to date cooling degree days 0  
Year to date cooling degree days 6  
Growing Degree Days 14 (Base 50)    
Moisture  
Dew Point 27 °F    
Average Humidity 27    
Maximum Humidity 53    
Minimum Humidity 9    
Precipitation  
Precipitation 0.00 in 0.13 in 0.92 in (1957)
Month to date precipitation 0.13  
Year to date precipitation 4.77  
Sea Level Pressure  
Sea Level Pressure 30.20 in    
Wind  
Wind Speed 5 mph (ESE)    
Max Wind Speed 17 mph    
Max Gust Speed 18 mph    
Visibility 10 miles    
Events      
T = Trace of Precipitation, MM = Missing Value Source: NWS Daily Summary

Daily Weather History Graph

Daily Weather History Graph

Search for Another Location

Airport or City:

Trip Planner

Search our weather history database for the weather conditions in past years. The results will help you decide how hot, cold, wet, or windy it might be!

Date:

Astronomy

Mar. 01, 2013 Rise Set
Actual Time 6:15 AM PST 5:45 PM PST
Civil Twilight 5:50 AM PST 6:10 PM PST
Nautical Twilight 5:22 AM PST 6:38 PM PST
Astronomical Twilight 4:53 AM PST 7:07 PM PST
Moon 10:05 PM PST (3/1) 8:21 AM PST (3/1)
Length of Visible Light 12h 19m
Length of Day
11h 30m
Waning Gibbous, 82% of the Moon is Illuminated
Mar 1
Waning Gibbous
Mar 4
Last Quarter
Mar 11
New
Mar 19
First Quarter
Mar 27
Full

Hourly Weather History & Observations

Time (PST) Temp. Windchill Dew Point Humidity Pressure Visibility Wind Dir Wind Speed Gust Speed Precip Events Conditions
12:53 AM 48.0 °F - 28.0 °F 46% 30.28 in 10.0 mi ESE 5.8 mph - N/A   Clear
1:53 AM 48.9 °F - 27.0 °F 43% 30.27 in 10.0 mi East 6.9 mph - N/A   Clear
2:53 AM 45.0 °F 41.8 °F 28.9 °F 53% 30.25 in 10.0 mi ESE 5.8 mph - N/A   Clear
3:53 AM 48.0 °F - 26.1 °F 42% 30.25 in 10.0 mi ESE 5.8 mph - N/A   Clear
4:53 AM 48.9 °F - 25.0 °F 39% 30.25 in 10.0 mi SE 6.9 mph - N/A   Clear
5:53 AM 48.0 °F - 26.1 °F 42% 30.25 in 10.0 mi ENE 5.8 mph - N/A   Clear
6:53 AM 52.0 °F - 26.1 °F 37% 30.24 in 10.0 mi Calm Calm - N/A   Clear
7:53 AM 62.1 °F - 33.1 °F 34% 30.24 in 10.0 mi Calm Calm - N/A   Clear
8:53 AM 73.0 °F - 28.9 °F 20% 30.24 in 10.0 mi Calm Calm - N/A   Clear
9:53 AM 79.0 °F - 24.1 °F 13% 30.22 in 10.0 mi Calm Calm - N/A   Clear
10:53 AM 82.9 °F - 19.0 °F 9% 30.21 in 10.0 mi ESE 15.0 mph 18.4 mph N/A   Clear
11:53 AM 84.0 °F - 19.0 °F 9% 30.19 in 10.0 mi ESE 17.3 mph - N/A   Clear
12:53 PM 84.0 °F - 23.0 °F 11% 30.16 in 10.0 mi East 8.1 mph - N/A   Clear
1:53 PM 82.9 °F - 23.0 °F 11% 30.15 in 10.0 mi WNW 5.8 mph 17.3 mph N/A   Clear
2:53 PM 82.0 °F - 24.1 °F 12% 30.14 in 10.0 mi NW 5.8 mph - N/A   Clear
3:53 PM 81.0 °F - 24.1 °F 12% 30.13 in 10.0 mi West 4.6 mph - N/A   Clear
4:53 PM 78.1 °F - 28.9 °F 17% 30.14 in 10.0 mi West 5.8 mph - N/A   Clear
5:53 PM 71.1 °F - 33.1 °F 25% 30.16 in 10.0 mi Calm Calm - N/A   Clear
6:53 PM 66.0 °F - 34.0 °F 30% 30.18 in 10.0 mi SSW 3.5 mph - N/A   Clear
7:53 PM 64.0 °F - 32.0 °F 30% 30.18 in 10.0 mi SW 3.5 mph - N/A   Clear
8:53 PM 62.1 °F - 30.9 °F 31% 30.19 in 10.0 mi ENE 3.5 mph - N/A   Clear
9:53 PM 59.0 °F - 30.0 °F 33% 30.19 in 10.0 mi East 5.8 mph - N/A   Clear
10:53 PM 59.0 °F - 28.0 °F 31% 30.19 in 10.0 mi NE 5.8 mph - N/A   Clear
11:53 PM 59.0 °F - 26.1 °F 28% 30.19 in 10.0 mi ENE 5.8 mph - N/A   Clear